Location: Goheenville
(40.9070°N, 79.3720°W)
Time: 13:18:32
(UTC-05:00)

Cosmos 1727 Rocket - Visible Passes

Search period start: 18 February 2018 00:00
Search period end: 28 February 2018 00:00
Orbit: 961 x 996 km, 82.9° (Epoch: 17 February)

Date Brightness Start Highest point End Pass type
(mag) Time Alt. Az. Time Alt. Az. Time Alt. Az.
18 Feb 5.4 03:32:20 10° N 03:42:42 16° SE 03:43:58 10° SE visible
18 Feb 5.0 05:17:54 10° NNW 05:27:42 16° SW 05:29:05 10° SSW visible
18 Feb 6.7 18:50:42 10° W 18:54:13 15° WNW 18:57:47 10° NNW visible
19 Feb 5.4 03:58:21 10° N 04:11:51 - SSE 04:01:22 29° N visible
19 Feb 5.8 05:45:20 10° NW 05:56:45 - SW 05:46:01 12° NW visible
20 Feb 6.6 02:40:41 10° NNE 02:42:00 14° NE 02:42:00 14° NE visible
20 Feb 5.6 04:24:44 10° NNW 04:26:40 21° NNW 04:26:40 21° NNW visible
21 Feb 6.3 03:06:05 10° N 03:07:34 16° NNE 03:07:34 16° NNE visible
21 Feb 6.0 04:51:28 10° NNW 04:52:15 14° NNW 04:52:15 14° NNW visible
21 Feb 6.6 18:23:49 10° WSW 18:27:46 17° WNW 18:31:46 10° NNW visible
22 Feb 6.2 03:32:03 10° N 03:33:17 16° N 03:33:17 16° N visible
23 Feb 6.2 03:58:22 10° N 03:59:06 14° N 03:59:06 14° N visible
24 Feb 6.6 02:39:52 10° NNE 02:40:17 12° NNE 02:40:17 12° NNE visible
25 Feb 6.5 03:05:45 10° N 03:06:14 12° N 03:06:14 12° N visible
26 Feb 6.4 03:32:01 10° N 03:32:14 11° N 03:32:14 11° N visible
